Location: Newark
(43.0000°N, 1.6781°W)
Time: 21:05:22
(UTC+00:00)

X-37B - Visible Passes

Search period start: 26 February 2021 00:00
Search period end: 08 March 2021 00:00
Orbit: 383 x 391 km, 45.0° (Epoch: 10 February)

Date Brightness Start Highest point End Pass type
(mag) Time Alt. Az. Time Alt. Az. Time Alt. Az.
26 Feb 4.0 04:07:49 13° ENE 04:07:49 13° ENE 04:08:12 10° ENE visible
26 Feb 0.6 05:40:06 24° WNW 05:41:52 81° NNE 05:45:01 10° ESE visible
27 Feb 1.9 04:44:21 40° ENE 04:44:21 40° ENE 04:46:36 10° E visible
27 Feb 1.2 06:17:01 10° W 06:20:03 43° SSW 06:23:04 10° SE visible
28 Feb 0.5 05:20:56 45° W 05:21:45 70° SSW 05:24:53 10° ESE visible
01 Mar 3.0 04:25:17 22° E 04:25:17 22° E 04:26:34 10° ESE visible
01 Mar 1.9 05:57:35 13° W 05:59:49 26° SSW 06:02:30 10° SSE visible
02 Mar 1.4 05:02:03 39° S 05:02:03 39° S 05:04:36 10° SE visible
03 Mar 2.5 05:38:55 14° SW 05:39:30 15° SW 05:41:26 10° S visible
04 Mar 3.3 04:43:36 13° SSE 04:43:36 13° SSE 04:44:02 10° SSE visible
